Weather History for Somerville, NJ

Change the Weather History Date:

Friday, June 28, 2013

  Actual Average Record
Temperature  
Mean Temperature 78 °F -  
Max Temperature 86 °F 83 °F 97 °F (1963)
Min Temperature 71 °F 59 °F 46 °F (1970)
Cooling Degree Days 14    
Growing Degree Days 28 (Base 50)    
Moisture  
Dew Point 69 °F    
Average Humidity 79    
Maximum Humidity 100    
Minimum Humidity 57    
Precipitation  
Precipitation 0.00 in - - ()
Sea Level Pressure  
Sea Level Pressure 29.51 in    
Wind  
Wind Speed 4 mph (SSW)    
Max Wind Speed 8 mph    
Max Gust Speed 16 mph    
Visibility 9 miles    
Events      
Averages and records for this station are not official NWS values.
T = Trace of Precipitation, MM = Missing Value Source: NWS Daily Summary

Daily Weather History Graph

Daily Weather History Graph

Search for Another Location

Airport:

Trip Planner

Search our weather history database for the weather conditions in past years. The results will help you decide how hot, cold, wet, or windy it might be!

Date:

Astronomy

Jun. 28, 2013 Rise Set
Actual Time 5:30 AM EDT 8:33 PM EDT
Civil Twilight 4:56 AM EDT 9:06 PM EDT
Nautical Twilight 4:14 AM EDT 9:49 PM EDT
Astronomical Twilight 3:24 AM EDT 10:38 PM EDT
Moon 11:59 PM EDT 11:37 AM EDT
Length of Visible Light 16h 09m
Length of Day
15h 03m
Waning Gibbous, 66% of the Moon is Illuminated
Jun 28
Waning Gibbous
Jun 30
Last Quarter
Jul 8
New
Jul 15
First Quarter
Jul 22
Full

Hourly Weather History & Observations

Time (EDT) Temp. Heat Index Dew Point Humidity Pressure Visibility Wind Dir Wind Speed Gust Speed Precip Events Conditions
12:53 AM 72.0 °F - 70.0 °F 93% 29.55 in 9.0 mi Variable 4.6 mph - N/A   Mostly Cloudy
1:53 AM 72.0 °F - 70.0 °F 93% 29.53 in 7.0 mi South 3.5 mph - N/A   Partly Cloudy
2:22 AM 71.6 °F - 71.6 °F 100% 29.53 in 8.0 mi South 4.6 mph - N/A   Mostly Cloudy
2:53 AM 72.0 °F - 71.1 °F 97% 29.52 in 9.0 mi South 4.6 mph - N/A   Overcast
3:15 AM 73.4 °F - 71.6 °F 94% 29.52 in 9.0 mi Calm Calm - N/A   Mostly Cloudy
3:41 AM 71.6 °F - 69.8 °F 94% 29.52 in 7.0 mi South 3.5 mph - N/A   Scattered Clouds
3:53 AM 72.0 °F - 70.0 °F 93% 29.52 in 7.0 mi South 4.6 mph - N/A   Scattered Clouds
4:53 AM 72.0 °F - 70.0 °F 93% 29.51 in 9.0 mi South 3.5 mph - N/A   Overcast
5:53 AM 71.1 °F - 70.0 °F 96% 29.52 in 6.0 mi Calm Calm - N/A   Mostly Cloudy
6:53 AM 73.0 °F - 71.1 °F 93% 29.53 in 10.0 mi Calm Calm - N/A   Overcast
7:53 AM 73.9 °F - 70.0 °F 87% 29.53 in 10.0 mi SW 3.5 mph - N/A   Overcast
8:53 AM 75.9 °F - 70.0 °F 82% 29.52 in 10.0 mi Variable 3.5 mph - N/A   Overcast
9:53 AM 75.9 °F - 69.1 °F 79% 29.52 in 10.0 mi Variable 3.5 mph - N/A   Overcast
10:03 AM 78.8 °F - 69.8 °F 74% 29.51 in 10.0 mi Variable 6.9 mph - N/A   Overcast
10:53 AM 80.1 °F 82.9 °F 69.1 °F 69% 29.51 in 10.0 mi West 4.6 mph - N/A   Scattered Clouds
11:53 AM 81.0 °F 84.1 °F 69.1 °F 67% 29.52 in 10.0 mi Variable 4.6 mph - N/A   Mostly Cloudy
12:53 PM 82.9 °F 85.4 °F 66.9 °F 58% 29.52 in 10.0 mi WNW 4.6 mph - N/A   Clear
1:53 PM 82.0 °F 84.5 °F 66.9 °F 60% 29.50 in 10.0 mi Calm Calm - N/A   Mostly Cloudy
2:53 PM 84.0 °F 87.0 °F 68.0 °F 58% 29.49 in 10.0 mi SSW 8.1 mph - N/A   Scattered Clouds
3:53 PM 86.0 °F 90.1 °F 69.1 °F 57% 29.46 in 10.0 mi SW 8.1 mph - N/A   Partly Cloudy
4:53 PM 84.0 °F 87.0 °F 68.0 °F 58% 29.47 in 10.0 mi South 8.1 mph - N/A   Clear
5:53 PM 82.0 °F 85.9 °F 70.0 °F 67% 29.47 in 10.0 mi Variable 5.8 mph - N/A   Clear
6:53 PM 81.0 °F 84.4 °F 70.0 °F 69% 29.47 in 10.0 mi South 3.5 mph - N/A   Clear
7:53 PM 79.0 °F - 64.9 °F 62% 29.48 in 10.0 mi South 8.1 mph 16.1 mph N/A   Clear
8:53 PM 75.9 °F - 66.0 °F 71% 29.50 in 10.0 mi South 4.6 mph - N/A   Clear
9:53 PM 73.0 °F - 66.0 °F 79% 29.53 in 10.0 mi South 4.6 mph - N/A   Clear
10:53 PM 72.0 °F - 66.0 °F 81% 29.52 in 10.0 mi Calm Calm - N/A   Scattered Clouds
11:53 PM 71.1 °F - 66.0 °F 84% 29.49 in 10.0 mi Calm Calm - N/A   Clear